{"data":{"norad_id":49730,"epoch":"2026-09-19T19:18:12.560256Z","epoch_age_seconds":105385,"freshness":"FRESH","line1":"1 49730U 21115G   26262.80431204  .00001151  00000+0  45191-4 0  9994","line2":"2 49730  53.1615 353.1244 0001111  84.1269 275.9860 15.34394494264894","mean_motion":15.34394494,"eccentricity":0.0001111,"inclination_deg":53.1615,"raan_deg":353.1244,"arg_perigee_deg":84.1269,"mean_anomaly_deg":275.986,"bstar":4.5191e-5,"rev_number":26489,"period_min":93.848094843333,"perigee_km":461.95958607954,"apogee_km":463.47962441722,"semimajor_km":6840.8566052484,"source":"CELESTRAK","updated_at":"2026-09-20T09:00:39.403958Z"}}